Showing default

COSMOS 2329, 23791

Orbit data source: Space-Track

COSMOS 2329, 23791 is a payload satellite owned by VKS (CIS) in LEO that was launched on Mon, 19 Feb 1996 UTC via a TSIKLON-3 launch vehicle from the Plesetsk Missile And Space Complex (PKMTR). Payload-class satellites include a variety of spacecraft equipped with specific instruments for various scientific and technological missions. These include communications satellites like Starlink; space stations such as the ISS; scientific satellites like the Hubble; Earth observation satellites from companies like Planet Labs, Umbra, and HawkEye 360; GPS; miniature CubeSats for education and research; and military/defense satellites.

Loading next visibility...
Identifier
23791, 1996-009E
Orbit
LEO
Country
Flag of CISCIS
Related business
Manufacturer
NPO PM
Mission
Non-operational Defense Communications
Bus & Motor
STRELA-3, Unknown motor
Mass
225 kg wet, 225 kg dry
Launch date (UTC)
1996-02-19 (30 years ago)
Launch vehicle
TSIKLON-3
Launch site
Plesetsk Missile And Space Complex (PKMTR)
Object type
Payload
Rocket body
Debris
Shape & HBR
Cyl + 1 Ant, 3.5 m
Radar Cross Section
1.583 m², Large (>1 m²)

Expand to show TLE details & history
Last TLE update: 7 hours ago

TLE from 7 hours ago
0 COSMOS 2329
1 23791U 96009E   26034.50080306  .00000022  00000-0  62552-4 0  9991
2 23791  82.5688  51.1242 0009038  16.2932 107.8274 12.61701200379502
Epoch: 2026-02-03T12:01Z
TLE epoch observation values (Epoch: 2026-02-03T12:01:09.384Z)
Latitude
55.17117°
Longitude
-93.59666°
Altitude
1,427.174 km
Speed
7.152 km/s
True Right ascension
14h 41m 29s
True Declination
55° 01' 25"
Sunlit
Object was in daylight at epoch
Visualization orbit readout
Latitude
Unknown
Longitude
Unknown
Altitude
Unknown
Speed
Unknown
Apparent Right ascension
Unknown
Apparent Declination
Unknown
Sunlit
N/A
Visualization observer readout
Local Sidereal Time
21:08:26
Azimuth
Unknown
Elevation
Unknown
Doppler factor
Unknown
Orbital elements
Apogee altitude
1,420.294 km
Perigee altitude
1,406.211 km
Semi-major axis
7,791.389 km
Eccentricity
0.0009
Inclination
82.5688°
RAAN
51.1242°
Arg. of periapsis
16.2932°
True anomaly
107.92596°
Mean anomaly
107.8274°
Eccentric anomaly
107.87668°
Mean motion
3.15588 °/min
Orbital period
114.07 mins
BSTAR
0.000062552
Loading maneuver chart data...
Computing Atmospheric mass density...
Loading historical data...
Loading historical data...
Loading historical data...
Loading historical data...
Loading historical data...
Loading historical data...
Loading historical data...

Documentation

Showing up to 5 results
|